{"data":{"norad_id":60045,"epoch":"2026-05-24T18:51:06.520032Z","epoch_age_seconds":87346,"freshness":"FRESH","line1":"1 60045U 24112H   26144.78549213  .00001643  00000+0  18422-4 0  9995","line2":"2 60045  53.1587 251.0733 0001120  74.1437 285.9704 15.69708771112939","mean_motion":15.69708771,"eccentricity":0.000112,"inclination_deg":53.1587,"raan_deg":251.0733,"arg_perigee_deg":74.1437,"mean_anomaly_deg":285.9704,"bstar":1.8422e-5,"rev_number":11293,"period_min":91.736762041702,"perigee_km":358.9756262157,"apogee_km":360.48490848358,"semimajor_km":6737.8672673496,"source":"CELESTRAK","updated_at":"2026-05-25T13:38:19.153412Z"}}